EDT,Max TemperatureF,Mean TemperatureF,Min TemperatureF,Max Dew PointF,MeanDew PointF,Min DewpointF,Max Humidity, Mean Humidity, Min Humidity, Max Sea Level PressureIn, Mean Sea Level PressureIn, Min Sea Level PressureIn, Max VisibilityMiles, Mean VisibilityMiles, Min VisibilityMiles, Max Wind SpeedMPH, Mean Wind SpeedMPH, Max Gust SpeedMPH,PrecipitationIn, CloudCover, Events, WindDirDegrees
2012-7-1,53,50,46,54,50,46,100,98,82,,,,0,0,0,50,31,53,0.15,6,Fog-Rain,299
2012-7-2,48,46,44,48,46,45,100,99,93,,,,0,0,0,41,30,51,0.12,6,Fog-Rain,315
2012-7-3,50,46,41,46,42,39,100,91,71,,,,0,0,0,48,36,53,0.00,6,Fog,315
2012-7-4,53,50,48,54,50,43,100,96,76,,,,15,1,0,39,26,47,0.65,7,Fog-Rain,279
2012-7-5,51,48,46,50,49,46,100,99,94,,,,10,0,0,46,29,55,0.03,1,Fog,352
2012-7-6,62,55,48,55,50,43,100,87,55,,,,15,2,0,45,13,51,0.01,4,Fog,294
2012-7-7,55,52,50,55,52,50,100,100,96,,,,1,0,0,50,40,59,0.37,8,Fog-Rain,307
2012-7-8,50,46,41,50,42,37,100,94,71,,,,20,2,0,66,47,68,0.00,6,Fog,310
2012-7-9,46,42,37,39,36,34,100,83,66,,,,0,0,0,50,43,56,0.00,2,Fog,313
2012-7-10,51,45,39,43,38,36,97,82,62,,,,,,,36,28,38,0.00,3,,304
2012-7-11,57,50,42,45,41,30,95,73,44,,,,,,,36,27,36,0.00,2,,286
2012-7-12,59,54,50,46,43,39,77,68,55,,,,,,,39,29,46,0.00,1,,281
2012-7-13,64,57,50,48,45,39,88,67,51,,,,,,,36,23,31,0.00,2,,292
2012-7-14,62,58,53,52,48,41,88,71,58,,,,20,19,15,31,23,25,0.00,4,,305
2012-7-15,66,60,53,55,51,43,100,75,55,,,,20,15,0,17,10,17,0.01,5,Fog-Rain,223
2012-7-16,57,54,51,57,54,50,100,99,88,,,,20,1,0,40,20,45,0.19,6,Fog-Rain,323
2012-7-17,60,55,50,61,55,50,100,98,88,,,,20,2,0,54,39,60,0.39,7,Fog-Rain-Thunderstorm,290
2012-7-18,57,49,39,57,49,39,100,98,87,,,,15,1,0,58,44,66,0.00,7,Fog,308
2012-7-19,44,41,38,41,38,30,100,90,70,,,,1,0,0,50,40,45,0.00,5,Fog,327
2012-7-20,51,46,42,45,30,7,81,56,20,,,,,,,9,4,,0.00,4,,94
2012-7-21,53,48,42,46,42,37,87,78,66,,,,,,,26,7,,0.00,5,,264
2012-7-22,57,52,46,52,48,43,100,88,76,,,,20,7,0,34,28,36,0.02,7,Fog-Rain,278
2012-7-23,62,56,50,57,53,48,100,93,68,,,,20,3,0,38,23,46,1.56,6,Fog-Rain-Hail-Thunderstorm,258
2012-7-24,53,47,39,54,49,39,100,100,100,,,,0,0,0,60,44,75,1.20,8,Fog-Rain-Hail-Thunderstorm,320
2012-7-25,50,44,37,45,36,14,100,85,24,,,,0,0,0,63,47,74,0.00,7,Fog,326
2012-7-26,53,48,44,54,47,37,100,95,71,,,,0,0,0,39,30,40,0.07,8,Fog-Rain,280
2012-7-27,55,52,50,54,52,48,100,96,82,,,,2,0,0,25,17,,0.00,6,Fog,344
2012-7-28,55,52,46,54,50,43,100,96,82,,,,2,0,0,16,8,,1.30,7,Fog-Rain-Thunderstorm,142
2012-7-29,51,48,46,50,47,43,100,94,76,,,,0,0,0,21,13,28,0.01,7,Fog-Rain,87
2012-7-30,59,54,50,59,50,46,100,88,72,,,,5,1,0,30,10,25,0.00,5,Fog,276
2012-7-31,57,54,50,52,45,34,100,76,50,,,,20,6,0,31,20,33,0.00,4,Fog,199